Regional Weather Roundup
Issued by NWS

Home | Current Version | Previous Version | Text Only | Print | Product List | Glossary Off
Versions: 1 2 3 4 5 6 7 8 9 10 11 12 13 14 15 16 17 18 19 20 21 22 23 24 25 26 27

000
ASUS45 KTFX 290810
RWRMT
MONTANA REGIONAL WEATHER ROUNDUP
NATIONAL WEATHER SERVICE GREAT FALLS MT
200 AM MDT MON AUG 29 2016

NOTE: "FAIR" INDICATES FEW OR NO CLOUDS BELOW 12000 FEET WITH NO
SIGNIFICANT WEATHER AND/OR OBSTRUCTIONS TO VISIBILITY.

MTZ001>007-043-290900-
WEST OF THE DIVIDE

CITY           SKY/WX    TMP DP  RH WIND       PRES   REMARKS
KALISPELL      CLEAR     49  42  77 N7        30.16S
MISSOULA       CLEAR     56  37  49 MISG      30.19S
BUTTE          CLOUDY    51  31  46 CALM      30.33R
MULLAN PASS    CLEAR     57  32  38 S5        30.28S
DEER LODGE       N/A     54  36  50 W7        30.30S
EUREKA           N/A     55  41  58 CALM      30.16R
HAMILTON         N/A     55  39  54 S3        30.21R
LIBBY            N/A     54  39  58 SE3       30.17R
PLAINS           N/A     53  38  56 CALM      30.15R
RONAN            N/A     50  41  71 CALM      30.19S
THOMPSON FALLS   N/A     50  38  63 CALM      30.19R
$$

MTZ008-052>055-290900-
SOUTHWEST MONTANA

CITY           SKY/WX    TMP DP  RH WIND       PRES   REMARKS
BOZEMAN        CLEAR     53  42  66 S5        30.27R
DILLON         CLOUDY    58  35  42 S7        30.28R
W YELLOWSTONE  CLOUDY    43  30  61 CALM      30.39R
ENNIS          PTCLDY    55  32  41 CALM      30.35R
THREE FORKS      N/A     50  14  23 CALM      30.23R
TWIN BRIDGES     N/A     58  35  42 CALM      30.23R
$$

MTZ009-010-012-014-046-048-049-054-290900-
EAST SLOPES AND CENTRAL MONTANA

CITY           SKY/WX    TMP DP  RH WIND       PRES   REMARKS
CUT BANK       MOCLDY    52  41  66 S5        30.24F
GREAT FALLS    CLEAR     49  41  74 CALM      30.24S
MALMSTROM AFB  CLEAR     49  44  82 MISG      30.24R
HELENA         CLOUDY    57  41  55 W6        30.24R
CHOTEAU          N/A     54  43  66 SW3       30.26S
CONRAD           N/A     46  45  97 MISG      30.24S
$$

MTZ011-013-016-021-045-047-050-051-290900-
NORTH CENTRAL MONTANA

CITY           SKY/WX    TMP DP  RH WIND       PRES   REMARKS
HAVRE          CLEAR     52  44  74 NE12      30.22S
LEWISTOWN      CLEAR     59  45  59 SE8       30.27R
N BAR RANCH    CLOUDY    54  43  66 W5        30.31S
CHINOOK          N/A     54  46  76 SE3       30.24R
$$

MTZ017>020-022>027-061-062-290900-
NORTHEAST MONTANA

CITY           SKY/WX    TMP DP  RH WIND       PRES   REMARKS
GLASGOW        CLEAR     56  44  64 VRB6      30.22R
JORDAN           N/A     62  50  64 NE7       30.21R
SIDNEY         CLOUDY    62  50  64 N6        30.20R
WOLF POINT     CLEAR     60  46  59 E5        30.22R
POPLAR           N/A     57  46  67 NE6       30.22R
SCOBEY           N/A     46  39  76 CALM      30.21R
$$

MTZ028>42-056>058-290900-
SOUTHCENTRAL AND SOUTHEAST MONTANA

CITY           SKY/WX    TMP DP  RH WIND       PRES   REMARKS
BAKER          CLOUDY    67  49  52 NE14      30.18R
BILLINGS       CLOUDY    68  45  43 N9        30.22R
LIVINGSTON     CLEAR     63  42  46 SE9       30.28R
MILES CITY     CLOUDY    67  48  50 NE10      30.17R
EKALAKA          N/A     69  45  42 N2        30.15R
FORSYTH          N/A     64  48  55 N3        30.18R
LAUREL           N/A     66  43  43 NW6       30.20R
ROUNDUP          N/A     65  44  46 NW8       30.14R
$$

REGIONAL REPORTS...DAKOTAS

CITY           SKY/WX    TMP DP  RH WIND       PRES   REMARKS
WILLISTON      PTCLDY    60  46  59 N15       30.19R
MINOT          CLEAR     62  53  72 NW15      30.11R
DICKINSON      CLOUDY    65  49  56 N12       30.14R
CROSBY           N/A     50  48  93 NW9       30.23R
WATFORD CITY     N/A     63  48  59 N10       30.19R
BISMARCK       CLOUDY    70  52  52 NW7       30.08R
GRAND FORKS    CLOUDY    69  62  78 NE6       30.00R
FARGO          CLOUDY    73  68  84 E7        29.99S
BUFFALO SD       N/A     66  50  56 NE14      30.08R
RAPID CITY     CLEAR     65  48  54 N12       30.08S
$$

REGIONAL REPORTS...WYOMING/IDAHO/WASHINGTON

CITY           SKY/WX    TMP DP  RH WIND       PRES   REMARKS
GILLETTE       CLEAR     51  40  65 CALM      30.19S
SHERIDAN       MOCLDY    59  46  62 W3        30.20R
BUFFALO WY     CLOUDY    66  34  30 W7        30.26S
CODY           CLEAR     63  37  39 NW3       30.28R
YELLOWSTONE LA   N/A     40  32  73 CALM      30.48R
IDAHO FALLS    CLOUDY    51  39  63 NW3       30.22S
SALMON         CLEAR    N/A N/A N/A MISG        N/A
BOISE          PTCLDY    71  40  32 SE7       30.05S
SPOKANE        PTCLDY    64  31  28 NE3       30.10R
$$

REGIONAL REPORTS...ALBERTA

CITY           SKY/WX    TMP DP  RH WIND       PRES   REMARKS
EDMONTON       CLEAR     37  36  93 SE3       30.22R
CALGARY        MOCLDY    50  43  76 S8        30.22S
LETHBRIDGE     MOCLDY    43  41  93 S3        30.23R
MEDICINE HAT   CLEAR     48  45  87 NE6       30.24S
WATERTON GATE    N/A     41  39  93 E1          N/A
CARDSTON         N/A     46  41  81 SE1         N/A
MILK RIVER       N/A     43  39  87 W2          N/A
ONEFOUR          N/A     46  41  81 NE8         N/A
$$

REGIONAL REPORTS...SASKATCHEWAN

CITY           SKY/WX    TMP DP  RH WIND       PRES   REMARKS
SWIFT CURRENT  CLEAR     46  43  87 NE5       30.25R
REGINA         CLEAR     43  41  93 W6        30.22R
SASKATOON      CLEAR     39  37  93 W8        30.23R
VAL MARIE        N/A     43  39  87 N7          N/A
ASSINIBOIA       N/A     37  37 100 S3          N/A
$$




USA.gov is the U.S. government's official web portal to all federal, state and local government web resources and services.